ZKEOX NZMF-NZWF

Flight info

Callsign ZKEOX
Flight time 0h 52m
Altitude 7000
Route DCT
Aircraft C172/L-SFG/C

Departure

Time 2026-04-24 04:18
Airport Milford Sound Airport (NZMF)

Arrival

Time 2026-04-24 05:10
Airport Wanaka Airport (NZWF)
Time Latitude Longitude Altitude Speed Heading
2026-04-24 04:07 -44.67229 167.92319 58 ft 0 kts 126°
2026-04-24 04:11 -44.67257 167.92352 58 ft 3 kts 152°
2026-04-24 04:12 -44.67274 167.92360 58 ft 1 kts 174°
2026-04-24 04:12 -44.67277 167.92360 58 ft 0 kts 188°
2026-04-24 04:12 -44.67302 167.92361 58 ft 0 kts 180°
2026-04-24 04:12 -44.67304 167.92361 58 ft 1 kts 181°
2026-04-24 04:13 -44.67321 167.92380 60 ft 10 kts 123°
2026-04-24 04:13 -44.67359 167.92456 61 ft 0 kts 122°
2026-04-24 04:14 -44.67361 167.92462 61 ft 4 kts 122°
2026-04-24 04:14 -44.67368 167.92476 58 ft 0 kts 126°
2026-04-24 04:14 -44.67371 167.92482 58 ft 4 kts 127°
2026-04-24 04:15 -44.67385 167.92510 58 ft 4 kts 122°
2026-04-24 04:15 -44.67410 167.92558 58 ft 8 kts 122°
2026-04-24 04:15 -44.67451 167.92641 58 ft 13 kts 124°
2026-04-24 04:15 -44.67509 167.92752 58 ft 6 kts 136°
2026-04-24 04:16 -44.67537 167.92740 55 ft 5 kts 221°
2026-04-24 04:16 -44.67541 167.92706 55 ft 3 kts 304°
2026-04-24 04:16 -44.67540 167.92703 55 ft 0 kts 303°
2026-04-24 04:17 -44.67450 167.92517 55 ft 53 kts 306°
2026-04-24 04:18 -44.67219 167.91975 224 ft 72 kts 301°
2026-04-24 04:18 -44.66800 167.91455 390 ft 92 kts 332°
2026-04-24 04:18 -44.66185 167.91100 629 ft 99 kts 340°
2026-04-24 04:18 -44.65520 167.90792 835 ft 102 kts 339°
2026-04-24 04:19 -44.64841 167.90458 1060 ft 105 kts 340°
2026-04-24 04:19 -44.64148 167.90102 1289 ft 106 kts 334°
2026-04-24 04:19 -44.63589 167.89450 1515 ft 105 kts 313°
2026-04-24 04:19 -44.63068 167.88726 1743 ft 105 kts 314°
2026-04-24 04:20 -44.62548 167.88002 1975 ft 105 kts 313°
2026-04-24 04:20 -44.62081 167.87218 2201 ft 104 kts 308°
2026-04-24 04:20 -44.61628 167.86425 2423 ft 103 kts 308°
2026-04-24 04:20 -44.61174 167.85643 2637 ft 103 kts 308°
2026-04-24 04:21 -44.60730 167.84857 2879 ft 103 kts 298°
2026-04-24 04:21 -44.60364 167.83988 3057 ft 107 kts 293°
2026-04-24 04:21 -44.59990 167.83059 3248 ft 111 kts 294°
2026-04-24 04:21 -44.59605 167.82091 3430 ft 116 kts 293°
2026-04-24 04:22 -44.59210 167.81108 3605 ft 114 kts 293°
2026-04-24 04:22 -44.58823 167.80155 3780 ft 111 kts 293°
2026-04-24 04:22 -44.58442 167.79228 3951 ft 109 kts 293°
2026-04-24 04:22 -44.58060 167.78308 4129 ft 109 kts 293°
2026-04-24 04:23 -44.57618 167.77447 4306 ft 113 kts 315°
2026-04-24 04:23 -44.56827 167.77203 4489 ft 124 kts
2026-04-24 04:23 -44.56017 167.77577 4670 ft 126 kts 31°
2026-04-24 04:23 -44.55474 167.78535 4857 ft 125 kts 64°
2026-04-24 04:24 -44.55264 167.79641 5034 ft 115 kts 107°
2026-04-24 04:24 -44.55607 167.80571 5219 ft 105 kts 137°
2026-04-24 04:24 -44.56053 167.81374 5395 ft 101 kts 149°
2026-04-24 04:24 -44.56599 167.81986 5561 ft 102 kts 152°
2026-04-24 04:25 -44.57171 167.82616 5722 ft 106 kts 152°
2026-04-24 04:25 -44.57765 167.83260 5883 ft 109 kts 152°
2026-04-24 04:25 -44.58382 167.83920 6039 ft 112 kts 152°
2026-04-24 04:25 -44.58998 167.84586 6206 ft 112 kts 152°
2026-04-24 04:26 -44.59639 167.85267 6363 ft 117 kts 151°
2026-04-24 04:26 -44.60294 167.85936 6511 ft 118 kts 152°
2026-04-24 04:26 -44.60979 167.86575 6661 ft 118 kts 151°
2026-04-24 04:26 -44.61651 167.87204 6808 ft 115 kts 151°
2026-04-24 04:27 -44.62312 167.87825 6952 ft 114 kts 152°
2026-04-24 04:27 -44.62952 167.88474 7092 ft 113 kts 150°
2026-04-24 04:27 -44.63599 167.89092 7237 ft 112 kts 151°
2026-04-24 04:27 -44.64238 167.89714 7383 ft 112 kts 152°
2026-04-24 04:28 -44.64883 167.90320 7530 ft 111 kts 152°
2026-04-24 04:28 -44.65500 167.90960 7669 ft 115 kts 141°
2026-04-24 04:28 -44.65984 167.91862 7815 ft 115 kts 135°
2026-04-24 04:28 -44.66471 167.92775 7956 ft 119 kts 135°
2026-04-24 04:29 -44.66979 167.93718 8087 ft 122 kts 135°
2026-04-24 04:29 -44.67501 167.94671 8213 ft 123 kts 135°
2026-04-24 04:29 -44.68029 167.95616 8340 ft 121 kts 135°
2026-04-24 04:29 -44.68540 167.96553 8469 ft 121 kts 135°
2026-04-24 04:30 -44.69054 167.97504 8589 ft 123 kts 136°
2026-04-24 04:30 -44.69569 167.98470 8713 ft 123 kts 136°
2026-04-24 04:30 -44.70068 167.99424 8841 ft 120 kts 135°
2026-04-24 04:30 -44.70551 168.00356 8965 ft 120 kts 135°
2026-04-24 04:31 -44.71063 168.01327 8986 ft 127 kts 136°
2026-04-24 04:31 -44.71589 168.02330 8983 ft 125 kts 135°
2026-04-24 04:31 -44.72106 168.03321 8996 ft 127 kts 136°
2026-04-24 04:31 -44.72650 168.04332 8997 ft 131 kts 135°
2026-04-24 04:32 -44.73227 168.05353 8998 ft 136 kts 136°
2026-04-24 04:32 -44.73806 168.06399 8984 ft 132 kts 134°
2026-04-24 04:32 -44.74360 168.07392 8991 ft 128 kts 136°
2026-04-24 04:32 -44.74808 168.08197 8981 ft 127 kts 136°
2026-04-24 04:33 -44.75352 168.09192 8988 ft 131 kts 136°
2026-04-24 04:33 -44.75912 168.10198 8981 ft 133 kts 137°
2026-04-24 04:33 -44.76471 168.11236 8981 ft 135 kts 136°
2026-04-24 04:33 -44.77030 168.12262 8968 ft 130 kts 136°
2026-04-24 04:34 -44.77567 168.13274 8970 ft 129 kts 135°
2026-04-24 04:34 -44.78120 168.14274 8972 ft 130 kts 136°
2026-04-24 04:34 -44.78686 168.15278 8974 ft 132 kts 136°
2026-04-24 04:34 -44.79259 168.16296 8984 ft 134 kts 135°
2026-04-24 04:35 -44.79850 168.17319 8976 ft 135 kts 136°
2026-04-24 04:35 -44.80451 168.18354 8978 ft 136 kts 135°
2026-04-24 04:35 -44.81067 168.19390 8972 ft 138 kts 136°
2026-04-24 04:35 -44.81649 168.20379 8971 ft 125 kts 137°
2026-04-24 04:36 -44.82191 168.21323 8981 ft 128 kts 136°
2026-04-24 04:36 -44.82771 168.22326 8973 ft 134 kts 135°
2026-04-24 04:36 -44.83332 168.23379 8976 ft 135 kts 133°
2026-04-24 04:36 -44.83881 168.24471 8976 ft 138 kts 131°
2026-04-24 04:37 -44.84463 168.25547 8968 ft 139 kts 136°
2026-04-24 04:37 -44.85145 168.26455 8974 ft 133 kts 146°
2026-04-24 04:37 -44.85851 168.27312 8968 ft 134 kts 146°
2026-04-24 04:37 -44.86560 168.28174 8969 ft 135 kts 146°
2026-04-24 04:38 -44.87252 168.29088 8967 ft 138 kts 138°
2026-04-24 04:38 -44.87820 168.30188 8964 ft 142 kts 122°
2026-04-24 04:38 -44.88219 168.31459 8962 ft 142 kts 117°
2026-04-24 04:38 -44.88527 168.32771 8957 ft 137 kts 111°
2026-04-24 04:39 -44.88799 168.34027 8956 ft 134 kts 112°
2026-04-24 04:39 -44.89066 168.35281 8946 ft 134 kts 112°
2026-04-24 04:39 -44.89324 168.36561 8950 ft 137 kts 111°
2026-04-24 04:39 -44.89582 168.37858 8951 ft 138 kts 111°
2026-04-24 04:40 -44.89880 168.39141 8956 ft 137 kts 117°
2026-04-24 04:40 -44.90194 168.40418 8953 ft 139 kts 110°
2026-04-24 04:40 -44.90442 168.41738 8956 ft 140 kts 110°
2026-04-24 04:40 -44.90641 168.43087 8955 ft 143 kts 98°
2026-04-24 04:41 -44.90589 168.44505 8949 ft 145 kts 88°
2026-04-24 04:41 -44.90505 168.45922 8952 ft 146 kts 88°
2026-04-24 04:41 -44.90421 168.47330 8947 ft 145 kts 88°
2026-04-24 04:41 -44.90337 168.48742 8951 ft 145 kts 87°
2026-04-24 04:42 -44.90255 168.50169 8950 ft 146 kts 88°
2026-04-24 04:42 -44.90170 168.51588 8951 ft 145 kts 89°
2026-04-24 04:42 -44.89966 168.52957 8947 ft 144 kts 70°
2026-04-24 04:42 -44.89461 168.54203 8941 ft 148 kts 57°
2026-04-24 04:43 -44.88928 168.55435 8941 ft 146 kts 59°
2026-04-24 04:43 -44.88402 168.56659 8945 ft 147 kts 58°
2026-04-24 04:43 -44.87864 168.57889 8949 ft 148 kts 58°
2026-04-24 04:43 -44.87319 168.59134 8945 ft 148 kts 58°
2026-04-24 04:44 -44.86797 168.60355 8939 ft 144 kts 57°
2026-04-24 04:44 -44.86288 168.61551 8941 ft 143 kts 58°
2026-04-24 04:44 -44.85758 168.62750 8942 ft 145 kts 58°
2026-04-24 04:44 -44.85220 168.63965 8938 ft 147 kts 58°
2026-04-24 04:45 -44.84672 168.65184 8940 ft 147 kts 58°
2026-04-24 04:45 -44.84132 168.66390 8946 ft 145 kts 57°
2026-04-24 04:45 -44.83606 168.67579 8941 ft 145 kts 58°
2026-04-24 04:45 -44.83012 168.68706 8942 ft 142 kts 41°
2026-04-24 04:46 -44.82217 168.69539 8944 ft 143 kts 30°
2026-04-24 04:46 -44.81323 168.70137 8939 ft 141 kts 15°
2026-04-24 04:46 -44.80372 168.70344 8943 ft 138 kts 360°
2026-04-24 04:46 -44.79419 168.70364 8937 ft 135 kts 346°
2026-04-24 04:47 -44.78498 168.70136 8942 ft 135 kts 344°
2026-04-24 04:47 -44.77574 168.69907 8947 ft 135 kts 344°
2026-04-24 04:47 -44.76649 168.69677 8938 ft 134 kts 345°
2026-04-24 04:47 -44.75729 168.69656 8950 ft 132 kts 357°
2026-04-24 04:48 -44.74801 168.69715 8945 ft 135 kts 356°
2026-04-24 04:48 -44.73872 168.69771 8945 ft 133 kts 356°
2026-04-24 04:48 -44.72944 168.69863 8946 ft 136 kts
2026-04-24 04:48 -44.72046 168.70360 8955 ft 142 kts 22°
2026-04-24 04:49 -44.71305 168.71250 8958 ft 144 kts 53°
2026-04-24 04:49 -44.70721 168.72402 8958 ft 145 kts 54°
2026-04-24 04:49 -44.70135 168.73560 8960 ft 145 kts 54°
2026-04-24 04:49 -44.69547 168.74719 8961 ft 146 kts 54°
2026-04-24 04:50 -44.68959 168.75871 8957 ft 144 kts 53°
2026-04-24 04:50 -44.68371 168.77021 8960 ft 146 kts 54°
2026-04-24 04:50 -44.67780 168.78177 8946 ft 143 kts 53°
2026-04-24 04:50 -44.67200 168.79279 8958 ft 142 kts 54°
2026-04-24 04:51 -44.66618 168.80422 8961 ft 145 kts 54°
2026-04-24 04:51 -44.66052 168.81575 8961 ft 142 kts 59°
2026-04-24 04:51 -44.65678 168.82870 8964 ft 145 kts 73°
2026-04-24 04:51 -44.65353 168.84195 8959 ft 146 kts 73°
2026-04-24 04:52 -44.65026 168.85542 8956 ft 145 kts 73°
2026-04-24 04:52 -44.64702 168.86886 8933 ft 146 kts 72°
2026-04-24 04:52 -44.64383 168.88200 8758 ft 130 kts 72°
2026-04-24 04:52 -44.64117 168.89349 8536 ft 116 kts 73°
2026-04-24 04:53 -44.63879 168.90339 8338 ft 102 kts 72°
2026-04-24 04:53 -44.63629 168.91383 7989 ft 121 kts 73°
2026-04-24 04:53 -44.63363 168.92547 7609 ft 129 kts 73°
2026-04-24 04:53 -44.63094 168.93781 7236 ft 134 kts 73°
2026-04-24 04:54 -44.62914 168.94619 6989 ft 135 kts 73°
2026-04-24 04:54 -44.62557 168.96298 6480 ft 135 kts 73°
2026-04-24 04:54 -44.62378 168.97146 6204 ft 134 kts 73°
2026-04-24 04:54 -44.62072 168.98810 5678 ft 133 kts 86°
2026-04-24 04:55 -44.62076 168.99686 5411 ft 133 kts 92°
2026-04-24 04:55 -44.62102 169.00977 5015 ft 132 kts 92°
2026-04-24 04:55 -44.62167 169.02255 4609 ft 131 kts 105°
2026-04-24 04:55 -44.62514 169.03431 4210 ft 131 kts 115°
2026-04-24 04:56 -44.62882 169.04579 3821 ft 130 kts 115°
2026-04-24 04:56 -44.63255 169.05734 3424 ft 129 kts 115°
2026-04-24 04:56 -44.63625 169.06874 3129 ft 121 kts 115°
2026-04-24 04:56 -44.63941 169.07858 3188 ft 107 kts 115°
2026-04-24 04:57 -44.64246 169.08808 3189 ft 107 kts 115°
2026-04-24 04:57 -44.64551 169.09765 3188 ft 111 kts 115°
2026-04-24 04:57 -44.64884 169.10816 3199 ft 122 kts 114°
2026-04-24 04:57 -44.65235 169.11932 3204 ft 127 kts 115°
2026-04-24 04:58 -44.65600 169.13077 3207 ft 129 kts 115°
2026-04-24 04:58 -44.65966 169.14219 3207 ft 130 kts 115°
2026-04-24 04:58 -44.66337 169.15375 3205 ft 130 kts 115°
2026-04-24 04:58 -44.66708 169.16532 3207 ft 130 kts 115°
2026-04-24 04:59 -44.67079 169.17688 3205 ft 130 kts 115°
2026-04-24 04:59 -44.67448 169.18844 3205 ft 130 kts 115°
2026-04-24 04:59 -44.67819 169.20002 3206 ft 130 kts 115°
2026-04-24 04:59 -44.68189 169.21163 3191 ft 130 kts 115°
2026-04-24 05:00 -44.68560 169.22342 3092 ft 135 kts 115°
2026-04-24 05:00 -44.69020 169.23497 2964 ft 136 kts 125°
2026-04-24 05:00 -44.69605 169.24535 2845 ft 134 kts 140°
2026-04-24 05:00 -44.70334 169.25317 2716 ft 131 kts 144°
2026-04-24 05:01 -44.71047 169.26077 2590 ft 130 kts 144°
2026-04-24 05:01 -44.71761 169.26833 2462 ft 124 kts 145°
2026-04-24 05:01 -44.72220 169.27318 2362 ft 98 kts 144°
2026-04-24 05:01 -44.72690 169.27766 2204 ft 69 kts 158°
2026-04-24 05:02 -44.73150 169.27688 1898 ft 68 kts 217°
2026-04-24 05:02 -44.73373 169.27148 1726 ft 68 kts 262°
2026-04-24 05:02 -44.73330 169.26389 1499 ft 86 kts 289°
2026-04-24 05:02 -44.72978 169.25722 1294 ft 77 kts 320°
2026-04-24 05:03 -44.72611 169.25348 1147 ft 59 kts 318°
2026-04-24 05:03 -44.72325 169.24975 1176 ft 59 kts 318°
2026-04-24 05:03 -44.71975 169.24511 1338 ft 74 kts 315°
2026-04-24 05:03 -44.71589 169.24019 1543 ft 84 kts 319°
2026-04-24 05:04 -44.71051 169.23538 1646 ft 102 kts 359°
2026-04-24 05:04 -44.70551 169.24221 1752 ft 110 kts 81°
2026-04-24 05:04 -44.70677 169.25215 2028 ft 103 kts 120°
2026-04-24 05:04 -44.71225 169.25901 2045 ft 99 kts 146°
2026-04-24 05:05 -44.71783 169.26398 1903 ft 95 kts 150°
2026-04-24 05:05 -44.72343 169.26893 1831 ft 95 kts 147°
2026-04-24 05:05 -44.72964 169.27163 1777 ft 84 kts 171°
2026-04-24 05:05 -44.73437 169.26955 1678 ft 72 kts 231°
2026-04-24 05:06 -44.73393 169.26280 1551 ft 86 kts 323°
2026-04-24 05:06 -44.72952 169.25783 1277 ft 74 kts 320°
2026-04-24 05:06 -44.72562 169.25295 1149 ft 76 kts 318°
2026-04-24 05:06 -44.72176 169.24815 1233 ft 77 kts 318°
2026-04-24 05:07 -44.71732 169.24236 1414 ft 92 kts 315°
2026-04-24 05:07 -44.71265 169.23600 1637 ft 96 kts 317°
2026-04-24 05:07 -44.70660 169.23376 1920 ft 93 kts 14°
2026-04-24 05:07 -44.70113 169.23909 2099 ft 101 kts 50°
2026-04-24 05:08 -44.70036 169.24922 2129 ft 116 kts 119°
2026-04-24 05:08 -44.70671 169.25706 2124 ft 122 kts 146°
2026-04-24 05:08 -44.71327 169.26315 2314 ft 119 kts 146°
2026-04-24 05:08 -44.71999 169.27073 2292 ft 127 kts 140°
2026-04-24 05:09 -44.72678 169.27879 2330 ft 125 kts 143°
2026-04-24 05:09 -44.73318 169.27915 2368 ft 80 kts 217°
2026-04-24 05:09 -44.73634 169.27271 1958 ft 75 kts 249°
2026-04-24 05:09 -44.73600 169.26629 1710 ft 67 kts 301°
2026-04-24 05:10 -44.73276 169.26164 1419 ft 72 kts 321°
2026-04-24 05:10 -44.72897 169.25692 1225 ft 74 kts 321°
2026-04-24 05:10 -44.72524 169.25241 1137 ft 66 kts 317°
2026-04-24 05:10 -44.72256 169.24908 1137 ft 37 kts 317°
2026-04-24 05:11 -44.72198 169.24822 1143 ft 0 kts 285°
2026-04-24 05:11 -44.72167 169.24781 1141 ft 7 kts 318°
2026-04-24 05:11 -44.72132 169.24728 1141 ft 14 kts 302°
2026-04-24 05:11 -44.72136 169.24677 1142 ft 6 kts 220°
2026-04-24 05:12 -44.72192 169.24604 1146 ft 20 kts 223°
2026-04-24 05:12 -44.72262 169.24491 1147 ft 6 kts 236°
2026-04-24 05:12 -44.72243 169.24391 1149 ft 9 kts 293°
2026-04-24 05:12 -44.72222 169.24315 1153 ft 11 kts 268°
2026-04-24 05:13 -44.72334 169.24278 1153 ft 6 kts 165°
2026-04-24 05:13 -44.72365 169.24306 1153 ft 2 kts 186°
2026-04-24 05:13 -44.72371 169.24293 1153 ft 4 kts 279°
2026-04-24 05:14 -44.72370 169.24290 1153 ft 0 kts 306°